Theta_e
313 312 312 311 310 308 311 313 307 318 317 307 309 305 306 302 306 308 307 307 306 305 308 309 311 313 314 315 315 313 319 315 310 311 316 317 316 315 315 308 308 310 309 310
313 313 312 311 309 309 310 313 315 320 315 304 305 306 305 306 305 307 307 305 307 309 308 307 310 311 314 315 314 314 315 310 305 308 312 314 311 313 314 314 313 308 307 310
314 313 312 311 309 309 312 314 309 313 312 312 308 306 306 305 311 309 310 308 309 307 307 311 309 310 312 316 315 321 318 312 309 305 309 313 310 312 314 313 308 309 310 313
314 314 312 311 310 309 312 317 312 311 305 307 309 309 309 306 307 312 312 309 308 307 305 308 309 312 313 316 315 315 315 310 312 312 311 311 311 310 311 311 312 309 311 312
315 315 313 312 310 308 313 310 310 314 312 310 309 304 309 308 309 310 309 309 309 309 306 309 308 312 313 314 318 316 315 310 311 309 311 311 309 311 311 312 312 312 313 313
314 315 315 313 309 309 311 312 313 311 306 309 309 308 308 309 311 313 313 311 310 309 310 314 316 316 316 316 315 314 313 311 309 305 309 309 305 310 311 313 315 314 310 317
313 314 314 314 311 309 310 311 310 308 305 308 309 309 309 310 311 310 312 313 312 315 319 319 318 316 315 316 316 317 314 313 311 306 308 300 310 319 317 314 315 318 320 322
311 312 313 314 312 310 311 311 311 309 302 306 305 306 308 310 312 309 310 313 315 318 316 313 311 310 311 312 315 315 315 313 308 304 304 308 310 312 313 311 312 316 321 324
312 312 312 313 312 310 312 313 314 311 305 303 304 303 307 306 309 310 311 315 317 316 315 312 306 303 307 306 311 315 315 316 310 307 302 299 309 314 318 320 308 317 325 326
312 312 312 312 312 311 310 313 313 311 306 310 308 303 305 309 308 308 312 312 313 316 313 309 306 305 311 305 306 308 310 311 307 306 304 307 314 316 322 307 309 323 327 328
311 311 312 312 312 312 311 312 315 310 307 308 309 309 306 307 309 306 311 310 311 313 309 309 310 308 311 309 311 309 308 307 306 307 303 300 319 319 313 322 327 327 327 326
311 311 311 312 312 312 311 310 314 314 306 307 311 311 312 312 312 309 312 309 309 315 312 313 313 309 312 310 304 314 306 310 307 309 309 320 322 322 325 326 327 327 326 323
310 310 311 311 311 311 310 308 310 309 305 308 309 309 315 315 311 314 307 312 312 315 316 315 315 310 314 306 307 310 314 318 313 314 317 320 320 323 325 327 327 324 323 321
310 310 311 311 311 311 310 307 311 310 307 304 310 318 316 320 318 313 312 312 313 315 316 313 312 310 314 309 310 310 313 319 316 316 319 319 320 323 325 324 324 322 323 323
310 311 311 311 310 310 310 310 309 309 307 307 309 315 317 319 318 317 314 311 310 313 310 309 308 315 311 313 312 309 314 313 312 308 318 320 320 325 325 322 321 323 324 325
311 311 311 310 310 310 309 307 311 311 311 307 306 314 314 319 318 317 315 314 310 311 311 310 313 313 311 307 306 313 314 317 317 315 321 322 323 325 324 323 323 324 324 324
311 310 310 310 309 309 310 308 312 310 313 308 307 308 315 318 317 317 316 316 315 314 313 312 312 313 311 306 303 311 314 315 318 321 321 319 322 321 323 324 325 323 326 326
310 310 309 309 309 308 310 314 309 311 311 311 305 307 311 318 314 312 317 313 314 315 313 317 312 314 312 306 311 313 314 315 317 321 323 321 324 324 324 325 326 323 322 322
309 309 309 312 312 314 312 313 310 314 311 308 310 306 308 319 317 318 314 316 309 317 311 311 314 311 307 312 314 315 316 315 317 320 322 321 323 323 324 324 323 320 321 321
309 310 311 311 310 311 311 309 306 308 310 310 307 314 307 310 314 314 314 314 310 307 311 317 310 309 315 316 317 319 320 320 321 319 318 320 320 321 322 321 321 322 322 322
311 308 307 310 312 312 311 307 305 307 304 310 310 310 309 317 309 312 318 313 314 305 309 309 307 307 313 319 320 323 322 322 322 323 323 322 322 321 321 321 321 322 323 323
304 305 307 307 309 306 302 303 308 305 305 312 310 310 316 318 319 312 315 309 312 303 315 309 304 313 321 320 319 320 320 321 321 322 321 321 320 321 320 320 321 322 324 324
309 302 301 303 306 295 297 296 303 305 312 313 314 312 317 319 317 314 312 306 305 316 307 304 309 319 319 320 320 320 321 321 320 320 320 320 319 320 320 319 321 323 324 324
303 300 292 299 299 302 303 304 307 312 315 316 317 315 315 318 313 313 304 310 311 302 301 302 314 319 318 321 321 321 319 319 318 318 318 318 317 318 320 320 322 323 322 323
302 303 295 300 306 309 309 311 313 317 314 315 311 311 315 311 308 311 308 303 301 303 304 312 317 320 321 321 320 320 319 320 319 319 318 318 319 320 320 322 323 323 324 323
301 303 300 305 304 305 308 306 308 313 316 316 316 308 306 305 307 304 302 301 301 307 315 318 319 321 321 321 322 322 322 319 317 317 317 318 318 319 320 322 322 322 323 323
300 300 306 304 304 304 307 308 305 313 311 305 308 301 301 310 304 302 308 306 312 316 320 322 323 322 320 317 320 320 318 317 318 318 318 317 319 319 318 317 318 322 322 323
Wind_Speed
20 21 21 22 24 29 9 5 5 6 4 9 7 12 7 1 7 7 6 6 7 6 3 11 16 18 9 5 5 13 19 10 14 16 11 4 11 12 16 12 14 10 13 11
19 20 20 21 22 20 8 5 3 5 5 7 9 5 10 8 8 8 5 6 5 1 3 5 9 10 5 8 13 9 9 10 11 13 9 8 11 16 16 16 14 15 11 9
18 19 20 22 24 21 6 5 5 5 6 3 9 9 12 10 6 10 8 8 6 9 10 6 3 9 7 5 10 5 8 14 13 11 2 4 10 13 16 20 15 14 15 13
19 18 19 21 22 22 6 2 3 6 6 10 7 5 1 11 7 9 6 7 14 13 12 11 10 8 10 8 8 7 13 12 7 12 3 6 7 8 10 16 19 18 13 12
19 19 18 20 22 29 4 6 5 3 5 4 9 7 9 9 6 6 7 11 8 8 12 11 7 11 10 13 11 11 10 7 6 10 6 8 10 10 12 13 15 16 14 15
19 19 19 18 18 20 4 3 2 5 3 5 6 11 12 8 3 6 7 8 7 11 10 9 12 11 8 6 9 12 10 7 7 12 5 8 13 14 16 15 14 14 17 13
19 19 19 17 12 14 5 4 5 5 4 5 6 3 5 10 6 7 3 8 7 4 9 7 11 12 12 9 8 8 9 9 7 10 5 15 6 5 6 10 15 13 13 6
18 18 17 16 11 11 7 3 5 4 7 4 9 9 8 8 8 9 9 9 4 8 7 9 8 8 10 13 2 6 7 9 8 9 13 15 15 9 10 14 18 17 13 8
18 17 16 16 12 10 8 2 4 5 6 2 4 7 5 8 7 6 7 2 5 6 6 9 10 10 9 13 10 4 7 4 8 10 12 18 14 10 2 5 18 17 12 10
17 17 16 15 14 10 7 3 4 5 6 4 4 5 5 2 5 6 1 2 4 5 7 9 8 10 2 8 13 7 10 8 12 11 13 15 11 6 2 13 13 7 10 11
17 17 16 15 13 12 7 5 3 5 5 10 11 8 9 6 5 5 7 6 6 5 7 8 4 8 6 6 4 4 9 9 10 11 12 20 7 3 10 8 4 7 11 9
17 17 16 15 13 11 7 5 1 3 7 8 10 14 15 15 13 7 2 6 4 5 5 2 3 5 2 8 10 5 9 10 10 6 5 2 3 9 5 5 7 8 9 8
18 17 16 14 12 10 5 5 4 5 5 8 7 4 6 11 19 14 5 3 5 2 5 4 3 6 4 9 11 12 4 4 7 5 10 5 2 4 6 6 10 10 5 3
18 17 17 15 13 10 7 4 3 5 5 6 3 3 3 3 8 16 18 7 4 4 4 3 3 4 1 6 5 7 6 9 10 8 3 3 6 9 10 8 8 7 5 3
19 18 17 16 14 11 8 6 5 7 6 6 8 14 1 3 6 9 13 13 9 3 4 4 5 2 4 4 4 9 7 11 9 9 1 11 6 13 11 10 8 6 6 6
20 19 19 16 12 8 4 4 5 8 5 5 5 4 3 3 5 7 8 9 7 5 4 4 3 2 5 6 11 14 12 7 11 10 6 8 3 13 13 10 6 5 5 4
21 20 20 16 10 6 4 6 4 8 5 5 5 2 5 1 6 4 5 7 4 5 4 5 6 5 5 8 14 13 9 8 6 7 5 5 10 11 11 8 7 5 7 6
22 21 16 4 8 2 4 4 7 7 5 4 5 3 4 3 5 5 4 6 5 6 5 2 6 4 5 6 6 9 12 12 8 9 12 6 11 6 11 8 8 8 7 6
22 14 5 5 5 2 4 3 9 5 5 5 3 4 4 1 2 2 5 5 6 3 6 8 5 7 7 6 8 7 6 8 10 6 10 7 9 10 10 9 8 6 7 5
19 6 5 4 3 4 7 4 3 5 5 5 5 1 3 4 1 4 4 4 5 5 5 2 6 10 12 13 11 6 6 7 7 10 9 9 8 7 8 6 5 4 4 4
4 4 3 5 3 5 4 4 5 4 4 6 4 4 4 3 5 1 1 1 2 5 4 5 5 6 6 5 6 6 8 8 7 8 4 5 3 3 4 3 3 5 5 6
6 7 4 3 4 4 5 4 3 5 4 5 4 3 4 2 2 4 3 4 3 5 3 4 6 5 8 6 5 4 1 4 6 5 5 6 6 5 3 3 5 6 5 5
1 2 3 3 3 2 6 6 5 3 3 5 6 4 3 4 4 3 3 5 5 1 5 6 2 7 6 5 6 8 9 9 8 8 7 6 5 3 2 5 5 5 7 6
3 3 3 5 4 5 3 4 2 3 3 2 2 2 2 2 4 2 4 2 3 5 4 4 5 5 5 5 5 6 7 7 7 6 4 4 3 4 4 5 5 6 7 6
4 3 4 6 3 1 3 3 2 1 2 1 1 2 2 2 3 2 2 4 6 5 1 4 4 5 6 5 4 5 5 5 5 5 5 5 5 6 6 5 6 6 5 6
4 5 5 4 5 4 2 3 3 5 2 2 1 2 4 4 3 4 6 3 5 4 2 4 6 6 5 4 5 6 5 5 4 5 5 5 5 6 6 6 7 7 7 7
4 3 3 5 6 5 2 1 1 3 2 3 2 6 4 1 4 4 4 3 3 2 3 4 6 5 5 4 4 5 4 4 3 3 3 4 4 4 5 6 4 5 4 4
Wind_Direction
343 345 344 343 346 338 303 288 234 133 243 201 205 228 208 280 221 197 256 283 281 281 244 217 229 215 221 167 190 210 218 229 238 227 228 271 289 249 228 231 230 235 281 278
342 342 347 346 349 352 309 307 316 161 262 223 208 174 222 242 220 223 224 248 244 290 280 237 228 218 129 187 191 193 168 220 235 227 193 200 232 232 245 254 258 266 261 268
343 344 350 349 347 346 280 276 218 155 221 293 287 208 220 211 204 251 250 266 254 253 251 211 209 199 166 178 218 8 226 245 232 251 4 3 197 234 231 240 239 244 243 256
344 345 350 347 345 345 270 258 64 356 190 210 233 239 312 219 214 221 220 225 240 244 244 226 219 223 158 175 159 201 224 243 234 260 317 282 281 269 220 244 254 268 285 283
348 347 350 349 350 334 268 321 331 332 292 261 235 194 210 239 215 234 228 239 263 264 241 253 242 212 215 186 179 197 204 235 243 254 214 246 260 256 260 243 255 271 274 275
348 351 351 352 1 338 339 21 257 284 137 221 236 233 239 229 243 219 269 283 293 245 243 288 289 288 307 297 224 209 226 228 224 255 269 290 262 255 262 253 259 266 262 279
348 349 353 357 10 3 320 11 289 279 256 249 241 310 270 242 225 284 310 293 258 27 324 270 248 232 235 242 227 269 210 232 244 260 247 248 286 24 326 284 285 281 264 269
349 350 349 353 4 0 327 339 301 315 281 306 264 249 264 270 250 247 273 281 331 308 260 234 197 198 204 209 162 219 261 218 223 251 246 265 257 263 253 270 272 273 243 218
342 345 347 348 353 357 316 322 285 288 305 134 348 286 278 276 257 237 235 200 299 265 245 226 216 212 213 198 176 208 198 245 266 244 261 271 290 327 326 282 263 251 217 202
338 338 340 343 344 346 322 305 289 275 278 281 265 253 301 317 258 271 241 345 244 232 221 226 221 223 275 222 208 180 200 229 234 240 260 269 304 5 165 242 294 109 176 165
335 336 335 337 342 345 326 316 290 297 288 292 262 253 265 252 242 274 49 246 195 238 243 240 208 270 184 262 275 225 227 232 247 250 264 280 53 167 238 5 342 132 134 136
327 330 329 332 334 335 332 280 110 289 260 290 314 285 275 262 274 295 247 338 305 4 277 229 326 231 231 258 253 159 249 262 299 284 302 42 266 266 321 292 134 131 125 104
324 323 323 323 321 321 299 287 304 255 271 267 236 230 232 229 237 246 267 176 344 97 345 336 350 268 295 241 235 262 173 255 244 237 225 249 259 209 181 146 113 88 83 93
320 319 317 315 312 305 278 248 270 276 287 283 83 148 253 217 207 215 231 265 279 287 282 285 286 275 26 274 332 281 321 152 231 243 236 193 195 174 158 153 148 147 131 105
320 317 312 309 305 296 275 247 224 253 291 322 311 309 88 229 191 205 212 226 238 267 246 237 248 338 258 205 282 247 200 240 221 255 195 226 177 192 184 175 175 153 141 123
315 313 308 301 291 277 256 226 171 209 212 281 289 30 190 129 159 186 187 202 218 248 260 246 252 247 272 264 249 250 260 237 284 291 347 234 285 177 181 183 164 138 128 114
314 312 306 296 267 206 252 360 35 162 205 252 279 244 124 155 145 150 159 180 195 234 224 236 261 202 214 255 256 264 252 273 280 267 243 200 200 183 180 172 133 143 114 108
316 314 312 310 137 177 225 134 157 196 257 254 276 265 200 193 182 159 169 169 200 195 251 214 245 154 229 253 272 272 270 264 259 255 223 278 183 167 168 162 154 164 157 144
315 318 159 194 225 204 60 88 156 226 293 297 247 274 91 207 161 130 179 209 198 118 232 230 235 232 219 238 250 269 277 247 260 231 210 224 182 175 162 177 174 190 159 168
310 230 228 163 57 325 164 203 199 200 195 233 260 299 246 302 198 164 172 196 240 221 198 109 238 251 258 261 287 293 274 285 250 199 204 202 178 176 176 188 201 201 192 180
318 327 354 348 344 214 217 232 229 159 226 208 238 264 280 134 269 71 290 170 186 245 153 241 241 239 223 35 322 309 282 247 226 215 237 188 92 137 166 180 219 206 215 218
308 300 295 283 236 218 246 223 175 220 244 162 224 192 238 135 263 251 174 236 198 250 108 239 246 63 41 17 17 20 72 145 127 135 108 85 73 66 19 313 259 237 223 208
174 217 236 230 171 241 223 200 198 221 190 185 194 185 227 166 229 240 228 223 229 90 223 242 43 33 51 55 84 87 87 91 94 85 73 63 60 56 280 263 246 234 209 219
259 248 261 231 193 235 220 272 336 46 324 2 354 268 285 200 221 217 231 180 257 236 243 222 59 37 100 101 100 107 96 87 86 79 59 41 338 311 281 259 256 234 237 245
267 233 243 223 260 269 321 319 257 61 17 257 310 295 262 218 250 230 273 220 231 228 227 63 51 120 128 116 89 91 82 67 52 18 2 352 331 302 285 261 265 247 254 260
249 238 269 236 254 198 164 360 18 4 307 265 319 302 263 215 248 222 219 242 233 72 39 98 131 135 121 114 110 91 67 49 42 40 28 9 352 323 311 293 261 253 253 256
245 241 240 265 279 290 285 260 345 314 354 15 275 216 218 286 240 233 210 270 55 56 120 129 110 129 118 107 97 100 100 97 77 84 44 13 334 307 284 272 247 245 234 244